[[{"header":{"parameterUnit":"m.s-1","parameterCategory":2,"la1":30.2991,"la2":30.254,"lo1":-89.0895,"lo2":-89.0444,"dy":0.0017,"dx":0.0017,"nx":28,"ny":28,"refTime":"2024-10-18T21:00:00:Z","depth":"0","parameterNumber":2,"parameterNumberName":"U-component_of_CURRENTS"},"data":[0,0,0,0,0,0,0,0,0,0,0,0,0,0,0,0,0,0,0,0,0,0,0,0,0,0,0,0,0,0,0,0,0,0,0,0,0,0,0,0,0,0,0,0,0,0,0,0,0,0,0,0,0,0,0,0,0,0,0.2077,0.2077,0,0.202,0.2019,0.2018,0.1972,0.1972,0.1972,0.1972,0.1899,0.1897,0.1895,0,0,0,0,0,0,0,0,0,0,0,0,0,0.2139,0.2137,0.2077,0.2077,0.2077,0.202,0.2018,0.2017,0.1972,0.1972,0.1972,0.1972,0.1899,0.1897,0.1895,0,0,0,0,0,0,0,0,0,0,0,0,0,0.2095,0.2137,0.2078,0.2051,0.2048,0.202,0.2018,0.2017,0.1972,0.1972,0.1972,0.1972,0.19,0.1897,0.1894,0.1876,0,0,0.1885,0.1884,0,0,0,0,0,0,0,0,0.2098,0.2092,0.2055,0.2053,0.205,0.2007,0.2013,0.1971,0.1972,0.1996,0.1972,0.1972,0.1937,0.1931,0.1913,0.1873,0.187,0.1885,0.1883,0.1882,0.1881,0,0,0,0,0,0,0,0.2101,0.2094,0.205,0.2055,0.2052,0.2039,0.2032,0.2005,0.1963,0.1994,0.1992,0.1993,0.1934,0.1916,0.1911,0.1869,0.1885,0.1883,0.1881,0.188,0.1836,0.1837,0,0,0,0,0,0,0.2118,0.2097,0.2052,0.2048,0.208,0.2038,0.203,0.2017,0.1964,0.1957,0.1993,0.1991,0.1921,0.1915,0.1909,0.1906,0.1882,0.1879,0.1878,0.1835,0.1836,0.1837,0,0,0,0,0,0,0.2119,0.2113,0.2054,0.2076,0.2068,0.2038,0.2023,0.2016,0.2005,0.1964,0.1956,0.199,0.1921,0.1913,0.1893,0.1902,0.1878,0.1875,0.1835,0.1836,0.1836,0.1887,0,0,0,0,0,0,0.2121,0.2114,0.2107,0.2077,0.2068,0.2039,0.2023,0.2015,0.2007,0.2004,0.1959,0.1951,0.192,0.1898,0.189,0.1897,0.1873,0.1834,0.1835,0.1836,0.1884,0.1889,0.1893,0,0,0,0,0,0.2123,0.2102,0.2106,0.2101,0.206,0.2039,0.2033,0.2008,0.2008,0.1998,0.1977,0.1953,0.19,0.1896,0.1887,0.1893,0.1833,0.1835,0.1836,0.1882,0.1888,0.1893,0,0,0,0,0,0,0.2111,0.2095,0.2099,0.2072,0.2065,0.2034,0.2019,0.2016,0.1991,0.1988,0.1956,0.1946,0.1933,0.1909,0.1906,0.1886,0.1865,0.1864,0.1903,0.1908,0.1913,0.1922,0.1871,0,0,0,0,0,0.2113,0.2097,0.2089,0.2068,0.2066,0.2051,0.2041,0.203,0.2008,0.1997,0.1972,0.1948,0.193,0.1917,0.1891,0.1878,0.1878,0.1878,0.1883,0.1887,0.189,0.1905,0.1912,0.1841,0.1841,0.1841,0,0,0.21,0.2093,0.2082,0.2067,0.2055,0.2053,0.2042,0.2027,0.2027,0.1993,0.1978,0.196,0.1931,0.1916,0.1908,0.1897,0.191,0.1889,0.1892,0.1893,0.1907,0.1914,0.1921,0.1842,0.1842,0.1842,0,0,0.2081,0.2067,0.2059,0.2057,0.2055,0.2047,0.2052,0.2035,0.2028,0.2019,0.2,0.1993,0.1956,0.1942,0.1931,0.1947,0.1934,0.1939,0.1967,0.1983,0.1989,0.1994,0.2018,0.2025,0.1941,0.1941,0.1942,0,0.2073,0.206,0.2053,0.2054,0.2052,0.2053,0.2052,0.2047,0.2027,0.203,0.2019,0.1994,0.197,0.1968,0.1973,0.1957,0.1967,0.1949,0.199,0.1995,0.2,0.2022,0.2029,0.1944,0.1944,0.1943,0.1943,0,0.2059,0.2052,0.2045,0.2051,0.2049,0.2041,0.2048,0.205,0.2051,0.2051,0.2052,0.2027,0.2015,0.2011,0.1994,0.2016,0.2014,0.1996,0.1978,0.201,0.2032,0.2038,0.1948,0.1947,0.1946,0.1945,0,0,0.2026,0.2036,0.2032,0.204,0.2047,0.204,0.2054,0.2064,0.2078,0.2072,0.2086,0.2069,0.2068,0.2056,0.2043,0.2057,0.2102,0.2044,0.2043,0.2071,0.2149,0.2155,0.2163,0.2093,0.2094,0.2095,0.2156,0,0.2019,0.2022,0.2029,0.2029,0.203,0.2044,0.2056,0.2069,0.208,0.2093,0.2096,0.2095,0.2083,0.208,0.2097,0.2096,0.2119,0.2087,0.2109,0.211,0.2116,0.217,0.2067,0.2113,0.2162,0.2164,0.2164,0,0.2,0.2008,0.201,0.2026,0.2028,0.2032,0.2055,0.2067,0.2099,0.2109,0.2127,0.2127,0.215,0.2129,0.2168,0.2151,0.2157,0.2159,0.2161,0.2152,0.2129,0.2086,0.2123,0.1945,0.2174,0.2173,0.2173,0,0.1972,0.1987,0.1989,0.1992,0.2015,0.2022,0.2038,0.2069,0.2086,0.2121,0.2136,0.2165,0.2175,0.2196,0.2209,0.2192,0.2253,0.2226,0.2241,0.2241,0.215,0.214,0.2018,0.2256,0.2256,0.2256,0.2255,0,0.1949,0.1948,0.1976,0.1973,0.198,0.2005,0.202,0.2044,0.2086,0.211,0.2139,0.2163,0.2192,0.2226,0.2234,0.2271,0.2277,0.2263,0.2263,0.2166,0.2158,0.1995,0.1963,0.2258,0.2257,0.2257,0.2256,0,0.1903,0.1926,0.1924,0.1952,0.1962,0.1961,0.2002,0.2021,0.2066,0.21,0.2112,0.2173,0.2227,0.2259,0.2299,0.2302,0.2248,0.2335,0.2228,0.2215,0.2067,0.2045,0.1996,0.1928,0.2371,0.2372,0.2372,0,0.1873,0.1871,0.1893,0.1898,0.1907,0.1924,0.1942,0.1996,0.2028,0.2104,0.2122,0.2188,0.2241,0.232,0.2342,0.2384,0.2256,0.229,0.2238,0.206,0.2034,0.1989,0.1931,0.2138,0.2136,0.2135,0.2134,0,0.1815,0.1826,0.1833,0.1844,0.1857,0.1874,0.1911,0.1934,0.2007,0.2051,0.2122,0.2173,0.2271,0.2282,0.2337,0.2333,0.2145,0.2269,0.2094,0.1864,0.1796,0.1729,0.2104,0.2124,0.2125,0.2126,0.2126,0.2127,0.177,0.176,0.1775,0.1786,0.1801,0.1816,0.1813,0.1873,0.1916,0.1963,0.2065,0.2103,0.213,0.2215,0.2207,0.204,0.2119,0.1916,0.1915,0.1893,0.1788,0.2161,0.2175,0.2176,0.2177,0.2178,0.2179,0,0.172,0.1723,0.1721,0.173,0.1724,0.1753,0.1787,0.1778,0.1808,0.1881,0.1938,0.1921,0.1886,0.1863,0.1772,0.1671,0.1599,0.1552,0.1402,0.1372,0.1683,0.1625,0.1506,0.1507,0.1507,0.1507,0.1507,0.1507,0.1691,0.1677,0.1682,0.1656,0.1659,0.162,0.1622,0.162,0.1656,0.165,0.1647,0.1679,0.1623,0.1463,0.1258,0.122,0.1076,0.1075,0.1057,0.1179,0.1208,0.1237,0.1165,0.0953,0.0952,0.0647,0.0644,0.0642]},{"header":{"parameterUnit":"m.s-1","parameterCategory":2,"la1":30.2991,"la2":30.254,"lo1":-89.0895,"lo2":-89.0444,"dy":0.0017,"dx":0.0017,"nx":28,"ny":28,"refTime":"2024-10-18T21:00:00:Z","depth":"0","parameterNumber":3,"parameterNumberName":"V-component_of_CURRENTS"},"data":[0,0,0,0,0,0,0,0,0,0,0,0,0,0,0,0,0,0,0,0,0,0,0,0,0,0,0,0,0,0,0,0,0,0,0,0,0,0,0,0,0,0,0,0,0,0,0,0,0,0,0,0,0,0,0,0,0,0,-0.1048,-0.1048,0,-0.1034,-0.1034,-0.1034,-0.0991,-0.0991,-0.099,-0.099,-0.0944,-0.0944,-0.0943,0,0,0,0,0,0,0,0,0,0,0,0,0,-0.1017,-0.1018,-0.1048,-0.1048,-0.1048,-0.1035,-0.1034,-0.1033,-0.0991,-0.0991,-0.099,-0.0989,-0.0945,-0.0944,-0.0943,0,0,0,0,0,0,0,0,0,0,0,0,0,-0.1016,-0.1018,-0.1048,-0.1028,-0.1027,-0.1035,-0.1034,-0.1033,-0.0992,-0.0991,-0.099,-0.0989,-0.0945,-0.0944,-0.0943,-0.0955,0,0,-0.094,-0.094,0,0,0,0,0,0,0,0,-0.1016,-0.1017,-0.1031,-0.103,-0.1028,-0.1017,-0.1007,-0.1007,-0.0992,-0.1001,-0.099,-0.0988,-0.0969,-0.0966,-0.096,-0.0953,-0.0951,-0.094,-0.0939,-0.0939,-0.0939,0,0,0,0,0,0,0,-0.1016,-0.1017,-0.1039,-0.1031,-0.103,-0.1014,-0.1012,-0.1006,-0.0987,-0.1,-0.0998,-0.1003,-0.0967,-0.0962,-0.0959,-0.095,-0.094,-0.0939,-0.0939,-0.0938,-0.0953,-0.0954,0,0,0,0,0,0,-0.1028,-0.1018,-0.1039,-0.1039,-0.1024,-0.1015,-0.1014,-0.1018,-0.0987,-0.0983,-0.1003,-0.1001,-0.0964,-0.096,-0.0957,-0.0965,-0.0939,-0.0938,-0.0938,-0.0952,-0.0953,-0.0954,0,0,0,0,0,0,-0.1027,-0.103,-0.104,-0.1031,-0.1031,-0.1017,-0.1023,-0.1019,-0.1015,-0.0991,-0.0985,-0.1004,-0.0963,-0.0959,-0.0957,-0.0963,-0.0938,-0.0937,-0.0951,-0.0953,-0.0954,-0.0983,0,0,0,0,0,0,-0.1026,-0.103,-0.1034,-0.1032,-0.1032,-0.1042,-0.1024,-0.1019,-0.1021,-0.1017,-0.099,-0.0984,-0.0962,-0.0958,-0.0956,-0.0961,-0.0936,-0.095,-0.0952,-0.0953,-0.0981,-0.0985,-0.0989,0,0,0,0,0,-0.1025,-0.1032,-0.1035,-0.1037,-0.104,-0.1043,-0.1041,-0.1026,-0.1022,-0.1019,-0.1007,-0.0985,-0.0968,-0.0959,-0.0955,-0.096,-0.0949,-0.0951,-0.0953,-0.0979,-0.0984,-0.0989,0,0,0,0,0,0,-0.1016,-0.1029,-0.1031,-0.1041,-0.1044,-0.1037,-0.1035,-0.1034,-0.1024,-0.1019,-0.0997,-0.0992,-0.0991,-0.0979,-0.097,-0.0972,-0.0955,-0.0957,-0.0976,-0.0981,-0.0985,-0.0969,-0.0935,0,0,0,0,0,-0.1022,-0.103,-0.1039,-0.1046,-0.105,-0.1047,-0.1048,-0.1041,-0.1035,-0.1029,-0.1015,-0.1005,-0.0999,-0.0993,-0.0982,-0.0987,-0.0968,-0.099,-0.0994,-0.0997,-0.0984,-0.0979,-0.0981,-0.0962,-0.0962,-0.0962,0,0,-0.1018,-0.1029,-0.1031,-0.1045,-0.1044,-0.1043,-0.1043,-0.1045,-0.104,-0.1027,-0.1016,-0.1017,-0.1004,-0.1003,-0.1002,-0.0993,-0.0994,-0.1,-0.1003,-0.0988,-0.0982,-0.0983,-0.0985,-0.0963,-0.0963,-0.0963,0,0,-0.1012,-0.1028,-0.103,-0.1035,-0.1045,-0.1044,-0.105,-0.1051,-0.1046,-0.1048,-0.1038,-0.1047,-0.1034,-0.1028,-0.1023,-0.1049,-0.1017,-0.1049,-0.1054,-0.105,-0.1051,-0.1052,-0.103,-0.1028,-0.1051,-0.1051,-0.1051,0,-0.1006,-0.1011,-0.103,-0.1033,-0.1031,-0.1046,-0.104,-0.1043,-0.1043,-0.104,-0.1045,-0.1045,-0.1043,-0.1041,-0.1052,-0.1055,-0.104,-0.1035,-0.1054,-0.1054,-0.1054,-0.1031,-0.1029,-0.1053,-0.1053,-0.1053,-0.1052,0,-0.0997,-0.1002,-0.1005,-0.1011,-0.1015,-0.1014,-0.1025,-0.1027,-0.1033,-0.1036,-0.1044,-0.1055,-0.1048,-0.1065,-0.1064,-0.107,-0.1055,-0.106,-0.1037,-0.1058,-0.1033,-0.103,-0.1055,-0.1055,-0.1054,-0.1054,0,0,-0.0962,-0.0992,-0.0987,-0.0986,-0.1002,-0.0998,-0.1001,-0.1001,-0.0987,-0.1017,-0.1006,-0.1036,-0.1049,-0.1045,-0.106,-0.1071,-0.1071,-0.1067,-0.1066,-0.1036,-0.1045,-0.0985,-0.0976,-0.1079,-0.1079,-0.1078,-0.1027,0,-0.094,-0.0936,-0.096,-0.0947,-0.0941,-0.0961,-0.0954,-0.0959,-0.0966,-0.0961,-0.1001,-0.0995,-0.1039,-0.1036,-0.106,-0.1063,-0.1065,-0.1083,-0.1036,-0.1034,-0.0971,-0.0971,-0.0858,-0.0798,-0.1024,-0.1023,-0.1023,0,-0.0901,-0.0909,-0.0888,-0.0902,-0.0901,-0.0896,-0.0877,-0.088,-0.089,-0.0894,-0.0919,-0.0939,-0.0969,-0.0999,-0.1023,-0.1031,-0.1035,-0.1046,-0.1044,-0.097,-0.0968,-0.0815,-0.0784,-0.0814,-0.1018,-0.1018,-0.1019,0,-0.0826,-0.085,-0.0828,-0.0831,-0.0848,-0.084,-0.085,-0.0851,-0.0838,-0.0849,-0.0832,-0.0882,-0.0882,-0.0922,-0.0959,-0.0982,-0.097,-0.1001,-0.0949,-0.0944,-0.0827,-0.0812,-0.0807,-0.1,-0.1,-0.1,-0.1,0,-0.0768,-0.0753,-0.0793,-0.0772,-0.0747,-0.0787,-0.0752,-0.076,-0.0764,-0.0731,-0.0793,-0.0768,-0.0861,-0.0873,-0.0924,-0.0917,-0.0938,-0.0933,-0.0924,-0.0835,-0.0822,-0.0826,-0.0882,-0.0998,-0.0999,-0.0999,-0.0999,0,-0.0673,-0.0696,-0.0674,-0.0696,-0.0701,-0.0679,-0.0693,-0.0667,-0.068,-0.0638,-0.0636,-0.0669,-0.0678,-0.0757,-0.0798,-0.0838,-0.085,-0.0846,-0.0728,-0.0705,-0.0691,-0.0753,-0.0734,-0.0752,-0.0778,-0.0776,-0.0775,0,-0.0627,-0.0599,-0.06,-0.0583,-0.0591,-0.0584,-0.0567,-0.0603,-0.0579,-0.0564,-0.053,-0.0534,-0.0504,-0.055,-0.0613,-0.066,-0.0752,-0.0603,-0.0635,-0.0658,-0.0721,-0.0777,-0.0799,-0.0493,-0.049,-0.0487,-0.0484,0,-0.0536,-0.0525,-0.0507,-0.047,-0.0451,-0.0443,-0.0437,-0.0406,-0.0429,-0.0382,-0.0323,-0.0298,-0.0324,-0.0306,-0.0381,-0.0432,-0.0598,-0.0541,-0.0593,-0.0514,-0.0543,-0.0565,-0.0563,-0.0457,-0.046,-0.0462,-0.0463,-0.0464,-0.0467,-0.0428,-0.0395,-0.0361,-0.0339,-0.0304,-0.0274,-0.0251,-0.0191,-0.0107,-0.0127,-0.0021,-0.004,-0.0113,-0.0208,-0.0292,-0.0396,-0.0315,-0.0391,-0.0447,-0.0456,-0.0386,-0.026,-0.0261,-0.0263,-0.0264,-0.0265,0,-0.0382,-0.0343,-0.0299,-0.0253,-0.0207,-0.0225,-0.0184,-0.014,-0.0038,0.0076,0.0155,0.0278,0.0254,0.0132,0.0006,-0.0104,-0.0197,-0.0195,-0.0251,-0.0288,-0.022,-0.0198,-0.0017,-0.0017,-0.0017,-0.0017,-0.0017,-0.0017,-0.0333,-0.0256,-0.0234,-0.0144,-0.0114,-0.0058,-0.0026,0.0055,0.0143,0.034,0.0477,0.0544,0.0476,0.0194,-0.0,-0.0068,-0.0213,-0.0198,-0.0343,-0.0294,-0.0312,-0.0329,-0.032,-0.0167,-0.0168,-0.0338,-0.0339,-0.0341]}],[{"header":{"parameterUnit":"m.s-1","parameterCategory":2,"la1":30.2991,"la2":30.254,"lo1":-89.0895,"lo2":-89.0444,"dy":0.0017,"dx":0.0017,"nx":28,"ny":28,"refTime":"2024-10-18T21:00:00:Z","depth":"2","parameterNumber":2,"parameterNumberName":"U-component_of_CURRENTS"},"data":[0,0,0,0,0,0,0,0,0,0,0,0,0,0,0,0,0,0,0,0,0,0,0,0,0,0,0,0,0,0,0,0,0,0,0,0,0,0,0,0,0,0,0,0,0,0,0,0,0,0,0,0,0,0,0,0,0,0,0.1602,0.1601,0,0.1607,0.1608,0.1608,0.1631,0.1631,0.1632,0.1632,0.1634,0.1634,0.1634,0,0,0,0,0,0,0,0,0,0,0,0,0,0.1596,0.1596,0.1602,0.1601,0.1601,0.1607,0.1608,0.1608,0.1631,0.1631,0.1632,0.1632,0.1634,0.1634,0.1634,0,0,0,0,0,0,0,0,0,0,0,0,0,0.1603,0.1596,0.1602,0.1611,0.1612,0.1607,0.1608,0.1608,0.1631,0.1631,0.1632,0.1632,0.1634,0.1634,0.1634,0.1625,0,0,0.1633,0.1633,0,0,0,0,0,0,0,0,0.1602,0.1603,0.161,0.161,0.1611,0.1616,0.1606,0.1612,0.1631,0.1627,0.1632,0.1632,0.1626,0.1626,0.1631,0.1625,0.1625,0.1633,0.1633,0.1633,0.1633,0,0,0,0,0,0,0,0.1602,0.1603,0.1607,0.1609,0.161,0.161,0.1612,0.1608,0.1627,0.1627,0.1628,0.1624,0.1626,0.1631,0.1631,0.1625,0.1633,0.1633,0.1633,0.1633,0.1678,0.1679,0,0,0,0,0,0,0.1595,0.1603,0.1607,0.1607,0.1604,0.1609,0.1612,0.1617,0.1627,0.1628,0.1623,0.1625,0.1631,0.1631,0.1631,0.1689,0.1633,0.1633,0.1633,0.1677,0.1678,0.168,0,0,0,0,0,0,0.1595,0.1596,0.1606,0.1602,0.1603,0.1609,0.1614,0.1617,0.1637,0.1623,0.1625,0.1643,0.1632,0.1631,0.1647,0.1686,0.1633,0.1632,0.1675,0.1677,0.1679,0.176,0,0,0,0,0,0,0.1595,0.1596,0.1607,0.1602,0.1603,0.1611,0.1614,0.1616,0.1631,0.1633,0.164,0.164,0.1632,0.1647,0.1647,0.1685,0.1632,0.1673,0.1676,0.1678,0.1756,0.1765,0.1773,0,0,0,0,0,0.1595,0.1606,0.1608,0.1608,0.1615,0.1611,0.1612,0.1619,0.1631,0.164,0.1652,0.164,0.1663,0.1648,0.1647,0.1686,0.1672,0.1675,0.1678,0.1752,0.1763,0.1772,0,0,0,0,0,0,0.1605,0.1609,0.1611,0.1622,0.1619,0.1614,0.1631,0.1629,0.1646,0.1665,0.165,0.1651,0.1684,0.1668,0.1651,0.1707,0.1668,0.1671,0.1725,0.1735,0.1743,0.1766,0.1632,0,0,0,0,0,0.1612,0.1627,0.1619,0.1629,0.1637,0.1638,0.1642,0.1647,0.1654,0.1664,0.1667,0.1679,0.1693,0.17,0.1706,0.1728,0.1715,0.1754,0.1762,0.177,0.1787,0.1798,0.1809,0.169,0.169,0.169,0,0,0.1623,0.1621,0.1635,0.1633,0.1644,0.1654,0.1644,0.1664,0.1677,0.166,0.1697,0.1708,0.1705,0.1739,0.1752,0.1732,0.1795,0.1773,0.178,0.1794,0.1802,0.1814,0.1824,0.1692,0.1691,0.1691,0,0,0.1638,0.1654,0.167,0.167,0.1679,0.1683,0.169,0.1701,0.1718,0.1734,0.1746,0.1782,0.178,0.1806,0.1812,0.1866,0.1839,0.1868,0.1929,0.1939,0.1949,0.1958,0.1947,0.1954,0.1871,0.1871,0.1871,0,0.1651,0.1666,0.1672,0.1679,0.1686,0.1698,0.1714,0.173,0.1742,0.1762,0.1755,0.1812,0.1815,0.1873,0.1904,0.1889,0.1879,0.1891,0.1951,0.1959,0.1967,0.1953,0.196,0.1875,0.1875,0.1874,0.1874,0,0.1662,0.1686,0.17,0.1718,0.1723,0.1746,0.1758,0.1786,0.1806,0.1817,0.1878,0.1897,0.193,0.1946,0.1944,0.2015,0.1985,0.1961,0.1926,0.1984,0.1966,0.1971,0.1881,0.188,0.1879,0.1878,0,0,0.1662,0.1705,0.171,0.172,0.1752,0.1747,0.1797,0.183,0.1858,0.1899,0.1945,0.2004,0.2031,0.2042,0.206,0.2087,0.2137,0.2059,0.2058,0.2051,0.2148,0.2081,0.2079,0.2121,0.2123,0.2124,0.2111,0,0.1675,0.1695,0.1718,0.1744,0.1758,0.1792,0.1825,0.1858,0.1888,0.1937,0.2,0.2042,0.206,0.2089,0.213,0.2137,0.2157,0.2142,0.2092,0.2091,0.2026,0.2086,0.1891,0.1859,0.2116,0.2117,0.2117,0,0.1668,0.1684,0.1719,0.1753,0.1766,0.1794,0.1844,0.1871,0.1951,0.1978,0.2057,0.2087,0.2177,0.2162,0.2221,0.2209,0.2196,0.2191,0.2189,0.2106,0.2035,0.1845,0.1859,0.2126,0.2125,0.2125,0.2124,0,0.1628,0.1676,0.1706,0.1716,0.1765,0.1804,0.184,0.1901,0.1928,0.2018,0.2045,0.2141,0.2194,0.2213,0.2237,0.2222,0.2276,0.2232,0.2157,0.2151,0.1966,0.194,0.226,0.226,0.226,0.226,0.226,0,0.1609,0.1629,0.1699,0.1707,0.1751,0.1788,0.1838,0.1886,0.1963,0.1999,0.2076,0.212,0.2212,0.2254,0.2253,0.2239,0.2282,0.2187,0.2155,0.1986,0.1964,0.218,0.2171,0.2259,0.2259,0.2259,0.226,0,0.1556,0.1609,0.1645,0.1715,0.1736,0.1771,0.184,0.1861,0.1937,0.1993,0.2026,0.2126,0.2166,0.2226,0.2261,0.2244,0.2232,0.2208,0.2005,0.1951,0.2088,0.2083,0.2104,0.2101,0.21,0.2098,0.2097,0,0.1543,0.155,0.163,0.1654,0.1701,0.175,0.1776,0.1857,0.1887,0.1977,0.2007,0.2079,0.2091,0.2132,0.2121,0.2096,0.2179,0.1914,0.1853,0.2112,0.2078,0.2076,0.2074,0.1628,0.1623,0.1619,0.1616,0,0.1501,0.1539,0.1555,0.1608,0.1658,0.1678,0.1738,0.1757,0.1843,0.1867,0.1899,0.1905,0.1952,0.1853,0.1868,0.1833,0.1905,0.1827,0.2153,0.1707,0.1664,0.1631,0.1644,0.1579,0.1582,0.1585,0.1587,0.1589,0.1467,0.1481,0.1511,0.1549,0.1597,0.161,0.1592,0.1633,0.1646,0.1645,0.1722,0.1644,0.1674,0.1554,0.153,0.1536,0.1657,0.1581,0.1593,0.1609,0.1566,0.1524,0.1402,0.1404,0.1407,0.1409,0.141,0,0.1411,0.1424,0.144,0.1485,0.1482,0.1543,0.1552,0.1497,0.1464,0.1449,0.1414,0.1231,0.1151,0.1209,0.1136,0.1155,0.1146,0.1129,0.109,0.1126,0.1158,0.1093,0.0803,0.0801,0.08,0.0799,0,0,0.1384,0.1372,0.1375,0.1362,0.1384,0.1349,0.1331,0.1253,0.1211,0.1082,0.0996,0.1002,0.1086,0.088,0.0892,0.0832,0.097,0.0801,0.128,0.1264,0.1294,0.1405,0.1344,0,0,0,0,0]},{"header":{"parameterUnit":"m.s-1","parameterCategory":2,"la1":30.2991,"la2":30.254,"lo1":-89.0895,"lo2":-89.0444,"dy":0.0017,"dx":0.0017,"nx":28,"ny":28,"refTime":"2024-10-18T21:00:00:Z","depth":"2","parameterNumber":3,"parameterNumberName":"V-component_of_CURRENTS"},"data":[0,0,0,0,0,0,0,0,0,0,0,0,0,0,0,0,0,0,0,0,0,0,0,0,0,0,0,0,0,0,0,0,0,0,0,0,0,0,0,0,0,0,0,0,0,0,0,0,0,0,0,0,0,0,0,0,0,0,0.0346,0.0346,0,0.03,0.0299,0.0298,0.0229,0.0228,0.0227,0.0226,0.0167,0.0166,0.0166,0,0,0,0,0,0,0,0,0,0,0,0,0,0.0374,0.0374,0.0346,0.0346,0.0346,0.03,0.0299,0.0298,0.0229,0.0228,0.0227,0.0226,0.0167,0.0166,0.0166,0,0,0,0,0,0,0,0,0,0,0,0,0,0.0346,0.0374,0.0347,0.0308,0.0304,0.03,0.0299,0.0298,0.0229,0.0228,0.0227,0.0225,0.0167,0.0166,0.0165,0.0188,0,0,0.0162,0.0162,0,0,0,0,0,0,0,0,0.0347,0.0344,0.0314,0.0311,0.0306,0.0271,0.0287,0.0261,0.023,0.0255,0.0226,0.0225,0.0203,0.0199,0.019,0.0185,0.0183,0.0162,0.0162,0.0161,0.0161,0,0,0,0,0,0,0,0.035,0.0346,0.0325,0.0314,0.0309,0.0292,0.0286,0.0282,0.0236,0.0253,0.0248,0.0248,0.0201,0.0191,0.0188,0.0182,0.0162,0.0161,0.0161,0.016,0.013,0.013,0,0,0,0,0,0,0.0362,0.0348,0.0327,0.0324,0.0327,0.0293,0.0286,0.0282,0.0236,0.0228,0.0249,0.0245,0.0194,0.019,0.0186,0.0166,0.0161,0.016,0.016,0.013,0.013,0.0129,0,0,0,0,0,0,0.0363,0.0361,0.0329,0.0337,0.0332,0.0295,0.029,0.0282,0.026,0.0234,0.0225,0.0234,0.0192,0.0187,0.0166,0.0164,0.016,0.0159,0.013,0.013,0.013,0.0154,0,0,0,0,0,0,0.0364,0.0361,0.0361,0.0338,0.0332,0.0323,0.0291,0.0282,0.0264,0.0257,0.0219,0.0212,0.0191,0.0168,0.0165,0.0163,0.0158,0.013,0.013,0.013,0.0153,0.0154,0.0155,0,0,0,0,0,0.0365,0.0369,0.0361,0.0359,0.0333,0.0324,0.0319,0.0285,0.0265,0.0259,0.0226,0.0213,0.0163,0.0167,0.0164,0.0161,0.0131,0.013,0.013,0.0153,0.0154,0.0155,0,0,0,0,0,0,0.0375,0.0362,0.0353,0.0351,0.0339,0.0313,0.0303,0.0287,0.0258,0.0244,0.0215,0.0207,0.0188,0.0173,0.0178,0.015,0.0144,0.0142,0.0162,0.0163,0.0164,0.0168,0.0157,0,0,0,0,0,0.0382,0.0383,0.0367,0.0366,0.0358,0.0332,0.0323,0.0303,0.0277,0.0261,0.0234,0.0205,0.0188,0.0173,0.0156,0.0146,0.014,0.0141,0.0142,0.0143,0.0143,0.0128,0.0128,0.0128,0.0128,0.0128,0,0,0.0388,0.0381,0.0381,0.037,0.0352,0.0344,0.0321,0.0305,0.0297,0.0262,0.0234,0.0212,0.0187,0.0168,0.0159,0.0153,0.0142,0.0142,0.0143,0.0143,0.0127,0.0127,0.0128,0.0128,0.0128,0.0128,0,0,0.0405,0.0389,0.0397,0.0389,0.0372,0.035,0.0347,0.0317,0.0299,0.0284,0.025,0.0229,0.0202,0.0179,0.0167,0.0168,0.0151,0.0155,0.016,0.0146,0.0146,0.0146,0.0153,0.0153,0.0151,0.0151,0.0151,0,0.041,0.0416,0.0398,0.0402,0.0395,0.0354,0.0355,0.0333,0.0301,0.0294,0.0277,0.0238,0.0211,0.0195,0.0179,0.0172,0.0161,0.016,0.0148,0.0148,0.0147,0.0154,0.0154,0.0152,0.0152,0.0152,0.0152,0,0.0437,0.0436,0.0435,0.0424,0.0415,0.0406,0.0378,0.0352,0.0325,0.0315,0.0298,0.0266,0.0238,0.0227,0.0197,0.0177,0.0171,0.0156,0.0148,0.0149,0.0156,0.0156,0.0154,0.0154,0.0153,0.0153,0,0,0.0452,0.0454,0.045,0.0457,0.0424,0.0422,0.0393,0.0371,0.0359,0.0335,0.0334,0.0294,0.0273,0.0256,0.0222,0.02,0.0184,0.0165,0.0163,0.0178,0.0159,0.0167,0.0168,0.0157,0.0156,0.0156,0.0172,0,0.047,0.0492,0.0481,0.0486,0.0491,0.0446,0.0428,0.0405,0.0379,0.0363,0.0341,0.0323,0.0286,0.0264,0.0239,0.0203,0.0181,0.0182,0.015,0.015,0.0162,0.0166,0.017,0.0184,0.0171,0.0171,0.0171,0,0.0494,0.0508,0.0523,0.0524,0.0519,0.0503,0.0464,0.0451,0.0415,0.0394,0.0373,0.0355,0.0326,0.0286,0.0244,0.0242,0.0191,0.0166,0.0166,0.0163,0.0157,0.0177,0.0184,0.0171,0.0171,0.0171,0.0171,0,0.0521,0.0534,0.0547,0.0547,0.0536,0.0517,0.0493,0.0457,0.045,0.0406,0.0403,0.0375,0.0357,0.0309,0.0249,0.0237,0.0206,0.0193,0.0161,0.0163,0.0156,0.0157,0.0145,0.0145,0.0145,0.0145,0.0145,0,0.0541,0.055,0.0556,0.0562,0.0565,0.0549,0.0544,0.0494,0.0465,0.0478,0.0421,0.0432,0.0352,0.033,0.0271,0.0228,0.0225,0.0168,0.0163,0.0166,0.0168,0.0142,0.0141,0.0145,0.0145,0.0145,0.0145,0,0.0555,0.0559,0.0581,0.058,0.0577,0.0574,0.0563,0.0566,0.0517,0.0526,0.0512,0.0469,0.0458,0.0394,0.0324,0.0261,0.0215,0.0184,0.0203,0.02,0.0181,0.0181,0.0182,0.0182,0.0182,0.0183,0.0183,0,0.0561,0.0578,0.0598,0.0609,0.0598,0.0606,0.0611,0.0573,0.058,0.0572,0.0581,0.0563,0.0584,0.0502,0.0385,0.0305,0.0254,0.0208,0.0184,0.0187,0.0183,0.0183,0.0183,0.0194,0.0194,0.0194,0.0194,0,0.0576,0.058,0.0603,0.0629,0.0636,0.0673,0.0673,0.0688,0.067,0.0691,0.0728,0.0753,0.0674,0.0594,0.0434,0.0372,0.023,0.0212,0.0203,0.0182,0.0199,0.0195,0.0194,0.0196,0.0196,0.0196,0.0196,0.0196,0.0591,0.0602,0.0631,0.0653,0.0672,0.0714,0.0755,0.0785,0.0828,0.0845,0.0863,0.0868,0.0743,0.0568,0.0438,0.0269,0.0299,0.0208,0.0207,0.0205,0.0202,0.0218,0.022,0.022,0.022,0.022,0.022,0,0.0607,0.0621,0.0652,0.0686,0.0715,0.0719,0.0782,0.0831,0.0909,0.0915,0.0961,0.0838,0.0743,0.058,0.0343,0.0224,0.0202,0.0166,0.0153,0.0154,0.0154,0.0146,0.015,0.0149,0.0148,0.0148,0,0,0.0613,0.0641,0.0656,0.0708,0.0733,0.0793,0.0839,0.0906,0.0924,0.0955,0.0921,0.0932,0.0751,0.0555,0.0406,0.0259,0.0225,0.0233,0.0308,0.0313,0.0313,0.0206,0.0199,0,0,0,0,0]}],[{"header":{"parameterUnit":"m.s-1","parameterCategory":2,"la1":30.2991,"la2":30.254,"lo1":-89.0895,"lo2":-89.0444,"dy":0.0017,"dx":0.0017,"nx":28,"ny":28,"refTime":"2024-10-18T21:00:00:Z","depth":"4","parameterNumber":2,"parameterNumberName":"U-component_of_CURRENTS"},"data":[0,0,0,0,0,0,0,0,0,0,0,0,0,0,0,0,0,0,0,0,0,0,0,0,0,0,0,0,0,0,0,0,0,0,0,0,0,0,0,0,0,0,0,0,0,0,0,0,0,0,0,0,0,0,0,0,0,0,0.0539,0.0539,0,0.0584,0.0585,0.0585,0.0615,0.0616,0.0616,0.0616,0.0686,0.0688,0.0689,0,0,0,0,0,0,0,0,0,0,0,0,0,0.0516,0.0516,0.0539,0.0539,0.054,0.0584,0.0585,0.0586,0.0615,0.0616,0.0616,0.0616,0.0686,0.0687,0.0689,0,0,0,0,0,0,0,0,0,0,0,0,0,0.0539,0.0516,0.0539,0.0561,0.0563,0.0584,0.0585,0.0586,0.0615,0.0616,0.0616,0.0616,0.0685,0.0687,0.069,0.0697,0,0,0.0697,0.0698,0,0,0,0,0,0,0,0,0.0538,0.054,0.0557,0.0559,0.0562,0.0595,0.0603,0.0624,0.0615,0.0595,0.0616,0.0617,0.0658,0.0663,0.0669,0.07,0.0703,0.0697,0.0699,0.07,0.0701,0,0,0,0,0,0,0,0.0536,0.0538,0.0556,0.0557,0.0561,0.0582,0.0585,0.0607,0.0624,0.0597,0.0599,0.0605,0.066,0.0667,0.0671,0.0704,0.0697,0.0699,0.0701,0.0702,0.0795,0.0796,0,0,0,0,0,0,0.0529,0.0536,0.0555,0.0558,0.0551,0.0582,0.0585,0.0584,0.0623,0.0629,0.0605,0.0606,0.0662,0.0668,0.0674,0.0734,0.07,0.0702,0.0703,0.0794,0.0795,0.0797,0,0,0,0,0,0,0.0528,0.053,0.0553,0.0549,0.0554,0.0581,0.0579,0.0584,0.0611,0.0629,0.0636,0.0628,0.0663,0.067,0.0708,0.0735,0.0703,0.0705,0.0793,0.0795,0.0796,0.0822,0,0,0,0,0,0,0.0527,0.0529,0.0535,0.0548,0.0554,0.0578,0.0579,0.0585,0.0613,0.0616,0.0651,0.0657,0.0664,0.0704,0.071,0.0738,0.0707,0.0792,0.0794,0.0796,0.082,0.0825,0.0829,0,0,0,0,0,0.0526,0.0528,0.0535,0.0538,0.0557,0.0579,0.0584,0.0605,0.0614,0.0629,0.0651,0.0657,0.0721,0.0707,0.0714,0.0743,0.0791,0.0793,0.0795,0.0818,0.0824,0.0828,0,0,0,0,0,0,0.0525,0.0532,0.0539,0.0545,0.0568,0.0585,0.0602,0.0616,0.0645,0.0653,0.0669,0.0676,0.072,0.0727,0.0711,0.0775,0.0757,0.0761,0.0773,0.0778,0.0782,0.0772,0.0709,0,0,0,0,0,0.0526,0.053,0.0545,0.0555,0.0564,0.0587,0.0603,0.0618,0.064,0.0655,0.0678,0.0704,0.0732,0.0751,0.0773,0.0808,0.0817,0.0831,0.0836,0.0839,0.0836,0.0875,0.0883,0.0804,0.0804,0.0804,0,0,0.053,0.0535,0.0539,0.0556,0.0573,0.0594,0.0598,0.0626,0.065,0.0658,0.0702,0.0722,0.0744,0.0782,0.0803,0.0794,0.0867,0.0842,0.0845,0.084,0.0879,0.0886,0.0893,0.0806,0.0805,0.0805,0,0,0.0538,0.0544,0.0551,0.0569,0.0597,0.0612,0.0624,0.0652,0.0673,0.0714,0.0725,0.0757,0.0803,0.0818,0.0833,0.0873,0.0887,0.089,0.0906,0.0944,0.0951,0.0957,0.098,0.0988,0.0893,0.0893,0.0893,0,0.0549,0.0553,0.0561,0.0576,0.0596,0.0622,0.0644,0.0667,0.0707,0.0725,0.0734,0.0799,0.0818,0.0858,0.0873,0.0883,0.0904,0.0885,0.095,0.0956,0.0961,0.0983,0.0991,0.0894,0.0894,0.0894,0.0894,0,0.0559,0.0572,0.0581,0.0605,0.0628,0.0653,0.0683,0.0714,0.0745,0.0765,0.0816,0.0839,0.0878,0.0892,0.0897,0.0948,0.095,0.095,0.0935,0.0971,0.0992,0.1,0.0896,0.0896,0.0895,0.0895,0,0,0.0562,0.0583,0.059,0.0605,0.0646,0.0665,0.0709,0.075,0.0783,0.082,0.0862,0.0902,0.0916,0.0933,0.0946,0.0974,0.1032,0.0983,0.0984,0.1002,0.1118,0.1026,0.1026,0.1053,0.1054,0.1056,0.1117,0,0.0574,0.0597,0.061,0.0649,0.0665,0.0701,0.074,0.0781,0.0823,0.087,0.0893,0.0938,0.0932,0.0961,0.0989,0.1025,0.1055,0.1015,0.1084,0.1085,0.0996,0.1032,0.106,0.1123,0.1125,0.1126,0.1127,0,0.0581,0.0596,0.0628,0.0666,0.0679,0.0714,0.0781,0.0818,0.0879,0.0912,0.0954,0.0977,0.1022,0.1016,0.1086,0.1067,0.1097,0.1114,0.1118,0.1025,0.1007,0.1081,0.1142,0.114,0.1139,0.1138,0.1138,0,0.0573,0.0608,0.0634,0.0649,0.0699,0.0732,0.077,0.0835,0.087,0.0944,0.098,0.1029,0.1067,0.111,0.114,0.1133,0.121,0.1205,0.1145,0.1139,0.1192,0.1185,0.1258,0.1258,0.1258,0.1258,0.1258,0,0.0572,0.0596,0.0635,0.0651,0.0693,0.0734,0.0792,0.0838,0.0907,0.0942,0.1002,0.1032,0.1096,0.1139,0.1164,0.1171,0.1234,0.1149,0.115,0.1202,0.1195,0.1198,0.119,0.126,0.126,0.1259,0.1259,0,0.0562,0.0585,0.0616,0.067,0.0689,0.0723,0.0794,0.0828,0.0905,0.0958,0.0982,0.1055,0.1102,0.1148,0.1216,0.1191,0.1214,0.1202,0.1249,0.1252,0.1114,0.1107,0.1146,0.1143,0.1141,0.1139,0.1137,0,0.0553,0.057,0.0623,0.0639,0.0668,0.0719,0.0748,0.0821,0.0849,0.0951,0.0961,0.1037,0.1074,0.1092,0.1149,0.1187,0.1175,0.1182,0.1144,0.1105,0.1104,0.11,0.1096,0.1134,0.1133,0.1133,0.1132,0,0.0542,0.0571,0.0596,0.0627,0.0657,0.0675,0.072,0.0734,0.0809,0.089,0.0916,0.095,0.0997,0.1033,0.1068,0.1093,0.1174,0.1158,0.1163,0.1127,0.1091,0.1091,0.109,0.1124,0.1125,0.1126,0.1126,0,0.0537,0.055,0.0583,0.0605,0.0631,0.0619,0.0647,0.0669,0.0703,0.0809,0.0813,0.0899,0.097,0.0985,0.1018,0.1031,0.1021,0.0995,0.1008,0.1017,0.0947,0.088,0.0851,0,0,0,0,0,0.0528,0.0536,0.0554,0.056,0.0579,0.0589,0.0619,0.0644,0.0714,0.0707,0.0758,0.0795,0.0844,0.0888,0.0879,0.097,0.1028,0.0956,0.1004,0.108,0.1089,0.1017,0,0,0,0,0,0,0.0521,0.0542,0.0542,0.0514,0.0511,0.0513,0.0527,0.0569,0.0562,0.0647,0.0672,0.075,0.0804,0.0844,0.0867,0.0883,0.0896,0.1015,0.1013,0.1075,0.1083,0.109,0.102,0,0,0,0,0]},{"header":{"parameterUnit":"m.s-1","parameterCategory":2,"la1":30.2991,"la2":30.254,"lo1":-89.0895,"lo2":-89.0444,"dy":0.0017,"dx":0.0017,"nx":28,"ny":28,"refTime":"2024-10-18T21:00:00:Z","depth":"4","parameterNumber":3,"parameterNumberName":"V-component_of_CURRENTS"},"data":[0,0,0,0,0,0,0,0,0,0,0,0,0,0,0,0,0,0,0,0,0,0,0,0,0,0,0,0,0,0,0,0,0,0,0,0,0,0,0,0,0,0,0,0,0,0,0,0,0,0,0,0,0,0,0,0,0,0,0.044,0.044,0,0.0425,0.0425,0.0424,0.0411,0.0411,0.0411,0.0411,0.0396,0.0395,0.0395,0,0,0,0,0,0,0,0,0,0,0,0,0,0.0433,0.0433,0.044,0.044,0.044,0.0425,0.0425,0.0424,0.0411,0.0411,0.0411,0.0411,0.0396,0.0395,0.0395,0,0,0,0,0,0,0,0,0,0,0,0,0,0.0428,0.0433,0.044,0.0431,0.043,0.0425,0.0425,0.0424,0.0411,0.0411,0.0411,0.0411,0.0396,0.0396,0.0395,0.0397,0,0,0.0394,0.0394,0,0,0,0,0,0,0,0,0.0429,0.0429,0.0433,0.0432,0.0431,0.042,0.0416,0.0415,0.0411,0.0418,0.0411,0.0411,0.0404,0.0403,0.04,0.0396,0.0395,0.0394,0.0394,0.0393,0.0393,0,0,0,0,0,0,0,0.0429,0.0429,0.0434,0.0433,0.0432,0.042,0.0419,0.0416,0.0412,0.0418,0.0417,0.0415,0.0403,0.0401,0.04,0.0395,0.0394,0.0393,0.0393,0.0393,0.0403,0.0403,0,0,0,0,0,0,0.0433,0.043,0.0434,0.0433,0.0429,0.042,0.0419,0.0423,0.0412,0.0411,0.0416,0.0415,0.0402,0.04,0.0399,0.0422,0.0393,0.0393,0.0393,0.0402,0.0403,0.0404,0,0,0,0,0,0,0.0433,0.0434,0.0435,0.0431,0.043,0.0421,0.0425,0.0423,0.0424,0.0411,0.0409,0.0419,0.0401,0.04,0.0407,0.042,0.0393,0.0392,0.0402,0.0403,0.0403,0.0453,0,0,0,0,0,0,0.0433,0.0434,0.0442,0.0431,0.0431,0.0437,0.0425,0.0423,0.0424,0.0423,0.0413,0.0411,0.0401,0.0407,0.0406,0.0419,0.0392,0.0401,0.0402,0.0403,0.0451,0.0455,0.0459,0,0,0,0,0,0.0433,0.0443,0.0443,0.0443,0.0441,0.0437,0.0436,0.0428,0.0424,0.0428,0.0425,0.0412,0.0412,0.0408,0.0406,0.0419,0.0401,0.0402,0.0403,0.0449,0.0455,0.0459,0,0,0,0,0,0,0.0443,0.0443,0.0442,0.0452,0.0448,0.0435,0.044,0.0433,0.0433,0.0435,0.0421,0.042,0.0429,0.0417,0.0412,0.0424,0.0403,0.0404,0.0438,0.0444,0.0448,0.0452,0.0392,0,0,0,0,0,0.045,0.0461,0.0453,0.0463,0.0463,0.0453,0.0452,0.0446,0.0442,0.0442,0.0436,0.0431,0.0432,0.0433,0.0428,0.0438,0.0417,0.0443,0.0448,0.0452,0.0454,0.0436,0.0439,0.0407,0.0407,0.0407,0,0,0.0459,0.0459,0.0466,0.0466,0.0463,0.0468,0.0452,0.0454,0.0461,0.0441,0.0454,0.0447,0.0437,0.0448,0.0451,0.0441,0.045,0.0453,0.0456,0.0456,0.0437,0.044,0.0443,0.0408,0.0408,0.0408,0,0,0.0475,0.048,0.0492,0.0491,0.0489,0.0484,0.0487,0.048,0.0481,0.049,0.0479,0.0483,0.048,0.0479,0.0477,0.0502,0.0472,0.0499,0.0527,0.051,0.0512,0.0514,0.0493,0.0492,0.0502,0.0502,0.0502,0,0.0483,0.0498,0.0494,0.0502,0.0506,0.0494,0.0505,0.0505,0.0502,0.0508,0.05,0.0503,0.0496,0.051,0.052,0.0513,0.0494,0.051,0.0516,0.0517,0.0518,0.0496,0.0494,0.0505,0.0505,0.0504,0.0504,0,0.0505,0.0518,0.0525,0.0535,0.0539,0.0546,0.0545,0.0551,0.0551,0.0549,0.0562,0.0553,0.0553,0.0553,0.0546,0.0555,0.0536,0.0523,0.0504,0.0524,0.0499,0.0497,0.0509,0.0508,0.0507,0.0506,0,0,0.0515,0.0537,0.054,0.0552,0.0557,0.0562,0.0579,0.0589,0.0601,0.06,0.0615,0.0619,0.0609,0.0607,0.0596,0.0587,0.0581,0.0562,0.056,0.0543,0.0538,0.0502,0.0496,0.0567,0.0567,0.0567,0.0518,0,0.0532,0.0557,0.0565,0.0592,0.0603,0.0605,0.0622,0.063,0.0633,0.0644,0.0639,0.0645,0.0631,0.0632,0.0623,0.0593,0.0577,0.0595,0.0519,0.0516,0.0484,0.0493,0.0567,0.0516,0.0516,0.0515,0.0515,0,0.0545,0.0562,0.0593,0.0621,0.0627,0.0645,0.0668,0.0682,0.0692,0.0694,0.0698,0.0685,0.0685,0.0661,0.0621,0.0633,0.0589,0.056,0.0557,0.0505,0.0477,0.049,0.0511,0.0511,0.0511,0.0512,0.0512,0,0.0546,0.058,0.0608,0.0617,0.0646,0.0667,0.0686,0.07,0.0719,0.0726,0.0731,0.0721,0.0718,0.0672,0.0619,0.0617,0.0562,0.0548,0.0472,0.0469,0.0494,0.0492,0.0506,0.0506,0.0506,0.0506,0.0506,0,0.0551,0.0574,0.0616,0.063,0.0666,0.0684,0.0723,0.0732,0.0756,0.0776,0.076,0.0762,0.0719,0.0683,0.0626,0.0546,0.0565,0.0476,0.0455,0.0516,0.0517,0.0492,0.0491,0.0504,0.0505,0.0505,0.0505,0,0.054,0.0569,0.0603,0.0649,0.0667,0.0693,0.0749,0.0774,0.079,0.0812,0.0815,0.0799,0.075,0.0694,0.0619,0.0555,0.0481,0.0443,0.0514,0.0498,0.0396,0.0398,0.0353,0.0351,0.035,0.0349,0.0348,0,0.0537,0.0554,0.0613,0.0641,0.0666,0.0713,0.0746,0.0785,0.0811,0.0828,0.0836,0.0805,0.0779,0.065,0.0589,0.0473,0.0449,0.0397,0.0395,0.0397,0.038,0.0385,0.0389,0.0345,0.0345,0.0345,0.0344,0,0.0528,0.0553,0.0582,0.0635,0.0682,0.0729,0.0779,0.0799,0.0837,0.0855,0.0834,0.0773,0.0717,0.0634,0.0545,0.0462,0.0427,0.0382,0.0384,0.0382,0.0387,0.0373,0.0379,0.0339,0.034,0.034,0.0341,0,0.0523,0.0538,0.0582,0.0625,0.0681,0.0725,0.0757,0.0788,0.0816,0.0834,0.0827,0.0771,0.0754,0.0627,0.0548,0.0463,0.0432,0.0381,0.0382,0.0387,0.041,0.0423,0.0367,0,0,0,0,0,0.0513,0.0529,0.0569,0.0618,0.0673,0.0707,0.0769,0.0801,0.0838,0.0817,0.0822,0.0765,0.0645,0.0608,0.0515,0.0518,0.0419,0.0401,0.0361,0.0312,0.0318,0.0336,0,0,0,0,0,0,0.0509,0.0542,0.0557,0.0602,0.0635,0.0696,0.0737,0.0767,0.0759,0.0782,0.073,0.071,0.0611,0.0696,0.0503,0.0481,0.0432,0.036,0.0357,0.0309,0.0314,0.0319,0.0339,0,0,0,0,0]}]]